カタログに戻る

STARLINK-35807

運用中通信VLEO
NORAD 66358·PAYLOAD·🇺🇸 United States

打ち上げ Nov 6, 2025 から Vandenberg Space Force Base

Loading…

次のパス (今後24時間)

TLE

最新Source: CelesTrak SupGP

元期: Sep 15, 2026, 04:13 UTC

1 66358C 25254L   26258.17618056 -.00022130  00000+0 -71166-3 0  2584
2 66358  53.1582  70.9855 0001098  88.0979 340.9886 15.31711980    12

AllMySatでSTARLINK-35807をリアルタイム追跡

Download on the App Store